Regional Weather Roundup
Issued by NWS Grand Forks, ND

Home | Current Version | Previous Version | Graphics & Text | Print | Product List | Glossary On
Versions: 1 2 3 4 5 6 7 8 9 10 11 12 13 14 15 16 17 18 19 20 21 22 23 24 25 26 27 28 29 30 31 32 33 34 35 36 37 38 39 40 41 42 43 44 45 46 47 48 49 50
000
ASUS43 KFGF 061331
RWRFGF
PRAIRIE TO PINES  WEATHER ROUNDUP
NATIONAL WEATHER SERVICE EASTERN NORTH DAKOTA/GRAND FORKS ND
800 AM CDT MON JUL 06 2015

 **SATELLITE DATA USED TO AUGMENT SKY COVER AT AUTOMATED STATIONS**
 *****  WEATHER ACROSS EASTERN NORTH DAKOTA  *****

CITY           SKY/WX    TMP DP  RH WIND       PRES   REMARKS
GRAND FORKS    PTSUNNY   56  49  77 N13       30.06R
GRAND FRKS AFB MOSUNNY   56  47  72 N16       30.06R
GRAND FRKS NWS   N/A     55 N/A N/A N7          N/A
DEVILS LAKE    PTSUNNY   57  48  72 N9        30.10R
FARGO          PTSUNNY   60  53  77 N16G24    30.01R HAZE
WAHPETON ARPT  CLOUDY    61  55  82 N18G24    29.98R
$$

 ***** WEATHER ACROSS CENTRAL AND WESTERN NORTH DAKOTA  *****

CITY           SKY/WX    TMP DP  RH WIND       PRES   REMARKS
BISMARCK       PTSUNNY   60  54  80 N6        30.12R HAZE
MINOT          PTSUNNY   56  52  86 N3        30.14R SMOKE
JAMESTOWN      PTSUNNY   59  53  80 N14       30.07R HAZE
MINOT AFB      MOSUNNY   55  55 100 W2        30.14R FOG
GARRISON         N/A     57  54  89 N6        30.14R
WILLISTON      PTSUNNY   58  52  80 NE6       30.18S
DICKINSON      PTSUNNY   57  53  86 NW3       30.16R
HETTINGER      CLOUDY    59  53  80 N6        30.17R
$$

 *****  OTHER AIRPORT OBSERVATIONS IN OUR AREA  *****

CITY           SKY/WX    TMP DP  RH WIND       PRES   REMARKS
WALHALLA       FAIR      54  50  87 MISG      30.11R
GRAFTON AIRPOR FAIR      54  50  87 N8        30.09R
VALLEY CITY AR FAIR      57  48  72 N10G20    30.07R
CANDO          CLOUDY    54  50  87 N10       30.12S
CAVALIER APRT  FAIR      55  46  71 N9        30.09R
GWINNER          N/A     63  57  82 N15G22    30.03R
SHEYENNE NWR     N/A     61  55  82 N9        29.95S
ROLLA          CLOUDY    52  50  93 N10       30.15R
 ***** THE ABOVE OBSERVATIONS ARE NON NWS ARE NOT QUALITY
       CONTROLLED AND MAY MIS-REPORT RAIN FOR SNOW...
$$

  *****  WEATHER ACROSS NORTHERN MINNESOTA  *****

CITY           SKY/WX    TMP DP  RH WIND       PRES   REMARKS
FLAG ISLAND    MOSUNNY   52  46  82 NW17      30.02R
WARROAD        MOSUNNY   54  45  71 NW9       30.05R
ROSEAU         PTSUNNY   54  46  76 N10       30.04S
HALLOCK        PTSUNNY   54  48  82 N12       30.08R
THF RVR FALLS  MOSUNNY   55  46  71 N17G23    30.05R
BAUDETTE       MOSUNNY   55  47  74 NW14G24   29.98R
WASKISH        PTSUNNY   55  48  76 N10       30.00R
CROOKSTON      MOSUNNY   57  52  82 N13       30.05R
STEPHEN NDAWN    N/A     55  50  82 N10         N/A
GREENBUSH NDAW   N/A     55  50  82 N8          N/A
$$
  *****  WEATHER ACROSS CENTRAL AND WEST MINNESOTA  *****

CITY           SKY/WX    TMP DP  RH WIND       PRES   REMARKS
FOSSTON        CLOUDY    57  52  82 N10       30.03R
BEMIDJI        CLOUDY    57  54  88 N10       29.99R
PARK RAPIDS    CLOUDY    64  59  83 N13       29.96R HAZE
ELBOW LAKE     PTSUNNY   64  63  95 NW13      29.93R FOG
WADENA         CLOUDY    63  61  94 N10       29.93S FOG
DETROIT LAKES  CLOUDY    59  54  82 N14G21    30.00R HAZE
MOORHEAD       PTSUNNY   59  54  82 N18       30.02R HAZE
FERGUS FALLS   CLOUDY    64  61  88 N12G23    29.95S FOG
MORRIS MN      CLOUDY    66  64  94 N16       29.90R FOG
STAPLES        CLOUDY    63  61  94 N8        29.92S FOG
$$
  *****  WEATHER ELSEWHERE ACROSS MINNESOTA  *****

CITY           SKY/WX    TMP DP  RH WIND       PRES   REMARKS
DULUTH         RAIN      62  59  90 NE6       29.88R FOG
INTRNTL FALLS  CLOUDY    57  52  83 N12       29.96R
ELY            CLOUDY    59  57  94 CALM      29.91R FOG
CLOQUET        HVY RAIN  61  57  88 NE6       29.88S
WHEATON          N/A     61  57  88 N16G22    29.97R FOG
BRAINERD       CLOUDY    63  59  87 N9        29.90S FOG
HIBBING        CLOUDY    61  59  93 N12       29.91R
ALEXANDRIA     LGT RAIN  65  62  90 N12       29.93R FOG
SAINT CLOUD    CLOUDY    64  62  93 N13G21    29.84S FOG
MINNEAPOLIS    LGT RAIN  70  69  97 E3        29.79S
$$

  *****  WEATHER ACROSS SOUTH DAKOTA  *****

CITY           SKY/WX    TMP DP  RH WIND       PRES   REMARKS
SIOUX FALLS    LGT RAIN  68  68 100 NW9       29.89R FOG
BROOKINGS      CLOUDY    66  61  82 N13       29.95R
WATERTOWN      CLOUDY    63  60  90 N15       29.93R FOG
HURON          CLOUDY    63  55  75 N13       29.97R HAZE
SISSETON         N/A     63  61  93 N16       29.96R
ABERDEEN       CLOUDY    64  60  87 N13       30.01R FOG
MITCHELL       CLOUDY    64  60  87 N12       29.98R FOG
PIERRE         CLOUDY    64  61  90 N12       30.05R FOG
MOBRIDGE       CLOUDY    65  61  87 N8        30.06R FOG
RAPID CITY     CLOUDY    59  55  87 NW16      30.19R FOG
$$

  *****  SOME WEATHER IN NEARBY STATES *****

CITY           SKY/WX    TMP DP  RH WIND       PRES   REMARKS
GLASGOW MT     SUNNY     56  52  86 NW5       30.21R
GREAT FALLS MT MOSUNNY   49  48  97 SE3       30.26S
CHEYENNE WY    CLOUDY    55  54  96 NE12      30.26R FOG
SCOTTSBLUFF NE CLOUDY    59  55  87 N14       30.19R FOG
OMAHA NE       LGT RAIN  73  71  93 CALM      29.83F
DES MOINES IA  CLOUDY    74  69  85 SW6       29.87F
DAVENPORT IA   CLOUDY    74  69  85 S15G21    29.92R
CHICAGO IL     MOSUNNY   74  66  76 S9        29.98S HAZE
EAU CLAIRE WI  LGT RAIN  69  67  93 S5        29.82S
LA CROSSE WI   LGT RAIN  72  69  90 SW7       29.85R FOG
$$

  *****  SOME NATIONAL WEATHER *****

CITY           SKY/WX    TMP DP  RH WIND       PRES   REMARKS
LA GUARDIA NY  PTSUNNY   75  67  76 E5        30.15F
RALEIGH NC     PTSUNNY   75  70  84 SW9       30.13R
ATLANTA GA     CLOUDY    73  70  88 CALM      30.18R FOG
NEW ORLEANS LA CLOUDY    79  72  79 CALM      30.17R
OKLAHOMA CITY  PTSUNNY   77  72  84 S15       29.95S
ALBUQUERQUE NM PTSUNNY   67  60  78 W5        30.16R
SALT LAKE CITY PTCLDY    71  56  58 SE6       30.09R
LOS ANGELES CA CLOUDY    64  59  83 W6        30.03R
BOISE ID       PTCLDY    68  53  58 SE6       30.03R
SEATTLE WA     PTCLDY    60  53  77 S7        29.98S
$$

*** WEATHER ACROSS MANITOBA...SASKATCHEWAN AND ONTARIO ***
                ***ONTARIO***

CITY           SKY/WX    TMP DP  RH WIND       PRES   REMARKS
GERALDTON      CLOUDY    61  57  88 W6        29.83R FOG
THUNDER BAY    LGT RAIN  61  61 100 W5        29.87R
SIOUX LOOKOUT  PTSUNNY   50  45  81 NW12      29.94R
TORONTO        MOSUNNY   72  59  64 S5        30.09R
BIG TROUT LK   CLOUDY    48  43  81 W22G32    29.74S
PICKLE LAKE    PTSUNNY   48  41  76 W13G21    29.88R
DRYDEN         CLOUDY    50  45  81 N9G17     29.96R
KENORA         PTSUNNY   50  43  76 N9        30.01R
$$
                *** MANITOBA***

CITY           SKY/WX    TMP DP  RH WIND       PRES   REMARKS
BRANDON        MOSUNNY   54  48  82 NW10      30.14S
DAUPHIN        PTSUNNY   50  45  81 NW10      30.16R
ISLAND LAKE    CLOUDY    48  43  81 W15G23    29.97R
PILOT MOUND      N/A     50  48  93 NW7         N/A
THE PAS        MOSUNNY   52  45  76 W7        30.14S
THOMPSON       MOSUNNY   48  41  76 NW8       30.05R
WINNIPEG       MOSUNNY   54  48  82 NW13      30.10R
LYNN LAKE      SUNNY     55  43  62 W8        30.03F
CHURCHILL      MOSUNNY   45  41  87 N18       29.89R
GILLAM         PTSUNNY   48  41  76 NW20G25   29.91R
$$
                ***SASKATCHEWAN***

CITY           SKY/WX    TMP DP  RH WIND       PRES   REMARKS
ESTEVAN        CLOUDY    54  50  87 N7        30.19R SMOKE
KINDERSLEY     PTSUNNY   50  48  93 N3        30.22S
LLOYDMINSTER   CLOUDY    48  45  87 SW5       30.19R
PRINCE ALBERT    N/A     45  43  93 W2        30.19R FOG
REGINA         MOSUNNY   55  48  76 NE5       30.22R
YORKTON        SUNNY     50  46  87 N3        30.19R
N. BATTLEFORD  CLOUDY    45  43  93 S3        30.23R
LA RONGE       NOT AVBL
SASKATOON      MOSUNNY   46  45  93 SW5       30.22R
SWIFT CURRENT  PTSUNNY   52  50  93 W7        30.22S
$$
NOTE: THESE ARE AUTOMATED STATIONS WITH LIMITED QUALITY CONTROL
      "FAIR" INDICATES FEW OR NO CLOUDS BELOW 12,000 FEET WITH NO
      SIGNIFICANT WEATHER AND/OR OBSTRUCTIONS TO VISIBILITY.
      SKY/WX - SKY CONDITION AND SIGNIFICANT WEATHER.
      TMP - AIR TEMPERATURE.    DP   - DEWPOINT TEMPERATURE.
      RH  - RELATIVE HUMIDITY.  PRES - PRESSURE.
      HX  - HEAT INDEX.         WCI  - WIND CHILL INDEX.
$


USA.gov is the U.S. government's official web portal to all federal, state and local government web resources and services.